[[{"header":{"parameterUnit":"m.s-1","parameterCategory":1,"la1":30.2991,"la2":30.254,"lo1":-89.0895,"lo2":-89.0444,"dy":0.0017,"dx":0.0017,"nx":28,"ny":28,"refTime":"2025-03-30T03:00:00:Z","depth":0,"parameterNumber":2,"parameterNumberName":"U-component_of_WINDS"},"data":[0,0,0,0,0,0,0,0,0,0,0,0,0,0,0,0,0,0,0,0,0,0,0,0,0,0,0,0,0,0,0,0,0,0,0,0,0,0,0,0,0,0,0,0,0,0,0,0,0,0,0,0,0,0,0,0,0,0,3.2475,3.2476,0,3.2564,3.2565,3.2566,3.255,3.2548,3.2547,3.2545,3.2638,3.2642,3.2646,0,0,0,0,0,0,0,0,0,0,0,0,0,3.2292,3.2295,3.2475,3.2476,3.2477,3.2564,3.2565,3.2566,3.255,3.2548,3.2546,3.2544,3.2637,3.2641,3.2646,0,0,0,0,0,0,0,0,0,0,0,0,0,3.2375,3.2296,3.2474,3.2479,3.248,3.2564,3.2565,3.2567,3.255,3.2548,3.2546,3.2543,3.2635,3.2641,3.2647,3.2732,0,0,3.2665,3.2668,0,0,0,0,0,0,0,0,3.237,3.2382,3.2477,3.2479,3.2481,3.2543,3.2535,3.2622,3.2551,3.2524,3.2545,3.2542,3.2609,3.2617,3.2639,3.2736,3.274,3.2666,3.2669,3.2672,3.2673,0,0,0,0,0,0,0,3.2365,3.2378,3.251,3.2479,3.2481,3.2478,3.2487,3.2551,3.2579,3.2526,3.2525,3.2536,3.2609,3.2633,3.2641,3.2741,3.2665,3.2671,3.2674,3.2677,3.2915,3.2917,0,0,0,0,0,0,3.2357,3.2373,3.2507,3.2513,3.2418,3.2483,3.2493,3.2526,3.2578,3.2583,3.2538,3.2535,3.2624,3.2634,3.2644,3.2748,3.2672,3.2677,3.2681,3.2912,3.2915,3.2918,0,0,0,0,0,0,3.2353,3.2369,3.2504,3.2443,3.246,3.2488,3.2525,3.2529,3.2553,3.2587,3.2592,3.2557,3.2622,3.2636,3.271,3.2751,3.268,3.2685,3.2909,3.2913,3.2917,3.2955,0,0,0,0,0,0,3.2348,3.2368,3.24,3.2444,3.2463,3.2568,3.2528,3.2532,3.2563,3.256,3.2606,3.2612,3.2622,3.2701,3.2716,3.2758,3.269,3.2905,3.291,3.2915,3.2951,3.296,3.2969,0,0,0,0,0,3.2342,3.2407,3.2401,3.2418,3.2503,3.257,3.2581,3.2591,3.2566,3.2599,3.2621,3.261,3.2744,3.2709,3.2726,3.2769,3.2903,3.2909,3.2915,3.2946,3.2958,3.2968,0,0,0,0,0,0,3.2367,3.2412,3.2407,3.2488,3.2525,3.2567,3.2608,3.2603,3.2648,3.2643,3.2654,3.2665,3.2741,3.2763,3.2723,3.2855,3.282,3.283,3.2838,3.285,3.2859,3.2852,3.2695,0,0,0,0,0,3.2382,3.2432,3.2469,3.2537,3.2556,3.2579,3.2609,3.2613,3.2652,3.2668,3.2696,3.2735,3.2786,3.2819,3.2867,3.2954,3.2964,3.2992,3.3001,3.3008,3.3017,3.3066,3.3079,3.2938,3.2938,3.2938,0,0,3.2413,3.2444,3.2475,3.2543,3.2572,3.2625,3.2593,3.2649,3.2688,3.2677,3.2749,3.2771,3.2815,3.2896,3.2934,3.2917,3.3058,3.3016,3.3022,3.3026,3.3073,3.3087,3.3098,3.2943,3.2942,3.2941,0,0,3.2497,3.2526,3.2586,3.2617,3.2662,3.2677,3.2691,3.2735,3.2749,3.2822,3.2814,3.2862,3.2949,3.2981,3.3009,3.3108,3.31,3.3123,3.317,3.3218,3.3229,3.3239,3.3275,3.3288,3.3131,3.3132,3.3132,0,3.2531,3.2609,3.2618,3.2676,3.2707,3.2699,3.2761,3.279,3.2849,3.2871,3.2851,3.2962,3.2991,3.308,3.3104,3.3127,3.3145,3.3118,3.3226,3.3236,3.3246,3.3281,3.3294,3.3134,3.3134,3.3134,3.3133,0,3.2649,3.2703,3.2747,3.2804,3.284,3.2899,3.2919,3.2954,3.2956,3.2974,3.3049,3.3084,3.314,3.3162,3.3164,3.3252,3.324,3.3224,3.3188,3.3262,3.3295,3.3308,3.3138,3.3137,3.3136,3.3135,0,0,3.275,3.2813,3.2829,3.2856,3.2905,3.2948,3.3008,3.3063,3.3094,3.3135,3.3187,3.3261,3.3247,3.3278,3.3284,3.3326,3.3404,3.3304,3.3305,3.3322,3.3505,3.3517,3.3533,3.3399,3.3401,3.3403,3.3501,0,3.284,3.2945,3.2956,3.3051,3.3103,3.3097,3.3149,3.3186,3.3205,3.3252,3.3272,3.3326,3.3302,3.3321,3.3362,3.3385,3.344,3.3378,3.3448,3.345,3.3437,3.355,3.3563,3.3654,3.3514,3.3516,3.3518,0,3.2958,3.3003,3.3103,3.3148,3.317,3.3217,3.3269,3.3314,3.3356,3.3367,3.3403,3.3404,3.3467,3.343,3.3518,3.3475,3.3504,3.352,3.3524,3.3531,3.3489,3.3561,3.3683,3.3697,3.3538,3.3536,3.3535,0,3.3023,3.3109,3.3181,3.3204,3.3257,3.329,3.3314,3.3354,3.3387,3.3433,3.3455,3.3508,3.3537,3.3578,3.3594,3.3565,3.3682,3.3645,3.3693,3.3693,3.3718,3.3717,3.3847,3.3736,3.3736,3.3736,3.3735,0,3.3122,3.3184,3.3211,3.3255,3.3325,3.3337,3.3406,3.3428,3.3464,3.3513,3.3512,3.3558,3.3575,3.3625,3.3638,3.3709,3.3722,3.3733,3.3736,3.3734,3.3733,3.3753,3.3748,3.3739,3.3738,3.3738,3.3737,0,3.3207,3.3227,3.3305,3.335,3.3363,3.3412,3.3451,3.3494,3.3512,3.3574,3.359,3.3619,3.3677,3.3697,3.3767,3.3776,3.386,3.3857,3.3845,3.3846,3.3894,3.3889,3.4043,3.4064,3.3938,3.3939,3.394,0,3.3269,3.3317,3.3367,3.34,3.3425,3.3478,3.3512,3.3526,3.3562,3.3615,3.3652,3.371,3.3757,3.3851,3.3878,3.3933,3.3932,3.3982,3.394,3.3937,3.3934,3.3931,3.3936,3.399,3.3991,3.3992,3.3993,0,3.3378,3.3386,3.3435,3.3488,3.3529,3.3571,3.3612,3.364,3.3661,3.3701,3.3761,3.3797,3.387,3.3928,3.3984,3.4009,3.4005,3.4006,3.402,3.4019,3.4011,3.4017,3.3868,3.4002,3.4001,3.4001,3.4,3.4,3.3453,3.3496,3.3539,3.3594,3.3627,3.3666,3.3709,3.3733,3.3783,3.3843,3.3849,3.3914,3.3957,3.4031,3.406,3.4111,3.4097,3.4117,3.4123,3.4128,3.4132,3.4002,3.4121,3.4121,3.4121,3.4121,3.412,0,3.3563,3.359,3.3641,3.3699,3.3743,3.3736,3.3781,3.3819,3.3875,3.3916,3.3962,3.4032,3.4089,3.4121,3.4178,3.4213,3.4213,3.4228,3.4226,3.4232,3.4141,3.4123,3.4227,3.4227,3.4227,3.4227,3.4227,3.4227,3.3625,3.3697,3.3711,3.38,3.3827,3.389,3.3917,3.3954,3.3986,3.4064,3.4111,3.4132,3.417,3.423,3.4282,3.429,3.4312,3.4328,3.4335,3.4249,3.4238,3.4228,3.4211,3.4332,3.4332,3.4422,3.4423,3.4424]},{"header":{"parameterUnit":"m.s-1","parameterCategory":1,"la1":30.2991,"la2":30.254,"lo1":-89.0895,"lo2":-89.0444,"dy":0.0017,"dx":0.0017,"nx":28,"ny":28,"refTime":"2025-03-30T03:00:00:Z","depth":0,"parameterNumber":3,"parameterNumberName":"V-component_of_WINDS"},"data":[0,0,0,0,0,0,0,0,0,0,0,0,0,0,0,0,0,0,0,0,0,0,0,0,0,0,0,0,0,0,0,0,0,0,0,0,0,0,0,0,0,0,0,0,0,0,0,0,0,0,0,0,0,0,0,0,0,0,4.0347,4.0349,0,4.045,4.0451,4.0452,4.0462,4.0461,4.046,4.0459,4.0557,4.0561,4.0565,0,0,0,0,0,0,0,0,0,0,0,0,0,4.0155,4.0159,4.0347,4.0349,4.035,4.045,4.0451,4.0452,4.0462,4.0461,4.046,4.0458,4.0556,4.0561,4.0565,0,0,0,0,0,0,0,0,0,0,0,0,0,4.0246,4.016,4.0347,4.0367,4.037,4.0449,4.0451,4.0453,4.0462,4.0461,4.0459,4.0458,4.0555,4.056,4.0565,4.063,0,0,4.0582,4.0584,0,0,0,0,0,0,0,0,4.0241,4.0253,4.0363,4.0366,4.0369,4.0442,4.0419,4.0512,4.0463,4.0427,4.0459,4.0457,4.052,4.0528,4.055,4.0635,4.0639,4.0582,4.0586,4.0588,4.059,0,0,0,0,0,0,0,4.0234,4.0249,4.0388,4.0364,4.0368,4.0369,4.038,4.0437,4.0481,4.043,4.0431,4.0443,4.0521,4.0545,4.0553,4.0641,4.0582,4.0587,4.059,4.0593,4.0785,4.0787,0,0,0,0,0,0,4.0225,4.0243,4.0384,4.0391,4.03,4.0374,4.0386,4.042,4.048,4.0488,4.0445,4.0443,4.0537,4.0546,4.0556,4.0638,4.0588,4.0593,4.0596,4.0783,4.0786,4.0788,0,0,0,0,0,0,4.0221,4.0238,4.038,4.0317,4.0336,4.0379,4.0416,4.0423,4.0447,4.0491,4.0499,4.0462,4.0536,4.0549,4.0613,4.0642,4.0595,4.06,4.0781,4.0784,4.0787,4.0801,0,0,0,0,0,0,4.0216,4.0236,4.0263,4.0318,4.0339,4.0437,4.0418,4.0426,4.0457,4.0456,4.0509,4.0516,4.0536,4.0605,4.0618,4.0648,4.0605,4.0779,4.0782,4.0786,4.0798,4.0804,4.0809,0,0,0,0,0,4.0209,4.0261,4.0264,4.0281,4.0373,4.0438,4.045,4.0473,4.0459,4.0486,4.0514,4.0515,4.0636,4.0611,4.0626,4.0659,4.0777,4.0781,4.0785,4.0796,4.0803,4.0809,0,0,0,0,0,0,4.0205,4.0268,4.0272,4.0344,4.0386,4.044,4.0474,4.048,4.0525,4.0522,4.0546,4.0558,4.0622,4.0646,4.0617,4.0725,4.0705,4.0712,4.0708,4.0715,4.072,4.0713,4.0609,0,0,0,0,0,4.0213,4.0262,4.0314,4.0372,4.0394,4.043,4.0459,4.0474,4.0517,4.0534,4.0567,4.0608,4.0655,4.0686,4.0732,4.0801,4.0813,4.0831,4.0836,4.084,4.0847,4.0887,4.0896,4.0801,4.0801,4.0801,0,0,4.0229,4.0269,4.0299,4.0373,4.0407,4.0457,4.0445,4.0497,4.0534,4.0541,4.0606,4.0631,4.0678,4.0745,4.0777,4.0768,4.0876,4.0846,4.0849,4.0853,4.0892,4.0901,4.0909,4.0804,4.0804,4.0803,0,0,4.0284,4.032,4.0374,4.0409,4.0462,4.0486,4.0498,4.0552,4.057,4.0635,4.0642,4.0685,4.0766,4.08,4.0827,4.0897,4.0899,4.0911,4.0939,4.0978,4.0986,4.0992,4.1019,4.1028,4.0917,4.0917,4.0917,0,4.0297,4.0374,4.0399,4.0453,4.0486,4.0497,4.0551,4.0583,4.0647,4.0669,4.0658,4.0761,4.0793,4.087,4.0887,4.0909,4.0924,4.0906,4.0983,4.099,4.0997,4.1022,4.1032,4.0918,4.0918,4.0918,4.0918,0,4.0388,4.0442,4.0478,4.0544,4.058,4.0633,4.0665,4.0699,4.071,4.0735,4.0801,4.084,4.0895,4.0914,4.0923,4.0992,4.0985,4.0978,4.0958,4.1007,4.1031,4.1041,4.092,4.0919,4.0919,4.0919,0,0,4.0444,4.0524,4.0537,4.0568,4.0628,4.0669,4.0722,4.0779,4.0807,4.0851,4.0897,4.0965,4.096,4.0992,4.1005,4.1039,4.1094,4.1028,4.103,4.1041,4.1174,4.118,4.1191,4.1096,4.1098,4.1099,4.117,0,4.0508,4.0607,4.0632,4.0716,4.0766,4.0778,4.0824,4.0865,4.089,4.0934,4.096,4.101,4.0998,4.1018,4.1052,4.108,4.1121,4.1075,4.1138,4.114,4.1128,4.1203,4.121,4.1276,4.118,4.1181,4.1183,0,4.0595,4.0645,4.0735,4.079,4.0812,4.0854,4.0908,4.0951,4.0997,4.1013,4.1049,4.106,4.1115,4.1092,4.1168,4.1136,4.1163,4.1181,4.1184,4.1192,4.1166,4.1215,4.1297,4.1307,4.1198,4.1196,4.1195,0,4.063,4.0718,4.0784,4.0809,4.0875,4.0904,4.0932,4.0977,4.101,4.1057,4.1078,4.1129,4.1158,4.1197,4.1221,4.1201,4.1296,4.1274,4.131,4.131,4.1331,4.133,4.142,4.1345,4.1345,4.1345,4.1345,0,4.0699,4.0754,4.0801,4.0841,4.0903,4.093,4.099,4.1018,4.1058,4.1104,4.1115,4.1157,4.1185,4.1231,4.1249,4.1311,4.1323,4.1337,4.1341,4.1337,4.1336,4.1356,4.1353,4.1347,4.1347,4.1346,4.1346,0,4.0749,4.0782,4.0855,4.0912,4.0928,4.0971,4.1019,4.1058,4.1083,4.114,4.1155,4.1194,4.1249,4.1276,4.1343,4.1355,4.1425,4.1426,4.1411,4.1413,4.1449,4.1446,4.1557,4.1573,4.1486,4.1487,4.1487,0,4.0792,4.0835,4.0898,4.0931,4.096,4.1012,4.1047,4.1074,4.111,4.1167,4.1199,4.1255,4.1301,4.1387,4.142,4.1471,4.1474,4.151,4.1482,4.1477,4.1477,4.1475,4.148,4.1515,4.1516,4.1516,4.1517,0,4.0866,4.0881,4.0932,4.0989,4.1031,4.1076,4.112,4.1146,4.1181,4.1219,4.1277,4.1313,4.1383,4.1438,4.1492,4.1519,4.1524,4.1525,4.1537,4.1534,4.1524,4.1532,4.1426,4.1523,4.1522,4.1522,4.1522,4.1521,4.0915,4.0955,4.1006,4.1062,4.11,4.1142,4.1182,4.1214,4.1263,4.1324,4.1337,4.1398,4.1443,4.1517,4.1546,4.1593,4.1585,4.1601,4.1606,4.161,4.1613,4.1515,4.1602,4.1602,4.1602,4.1602,4.1602,0,4.0991,4.1025,4.1077,4.1141,4.1185,4.1189,4.1238,4.1275,4.133,4.1373,4.1419,4.1485,4.1539,4.1577,4.1631,4.1662,4.1666,4.1675,4.1674,4.1681,4.1615,4.1601,4.1671,4.1671,4.1671,4.1671,4.1671,4.1671,4.1036,4.1105,4.1126,4.1212,4.1245,4.1308,4.1336,4.1375,4.141,4.1485,4.1531,4.1556,4.1597,4.1655,4.1704,4.1714,4.1734,4.1744,4.1754,4.1692,4.1685,4.1678,4.1665,4.1748,4.1748,4.1815,4.1816,4.1816]}]]